HORIZONS-2

Last updated on Tue Jul 01 2025 00:02:44 GMT+0000 (Coordinated Universal Time)

1 32388U 07063B 25181.55319787 -.00000254 00000+0 00000+0 0 9992 2 32388 1.6941 85.0927 0001995 26.2866 292.8118 1.00273570 64288
UTC large
Height (km)
Speed (km/s)
/
Latitude / Longitude
Inclination (degrees)
Orbital Period (minutes)
Azimuth
Elevation
Range (km)
Doppler Factor

Next 0 passes for location: London (51.5072 / 0.1276)

Sorry there are no passes over London.